Wind_Speed
6 6 6 5 6 6 6 5 4 4 3 3 2 2 2 2 1 2 2 3 3 2 2 2 2 2 2 2 2 2 3 3 3 4 4 4 4 4 5 5 6 6 6 6 7 7 8 8 8
6 6 6 5 5 5 5 5 4 4 3 3 2 2 2 2 2 2 2 2 3 3 3 2 2 2 2 2 3 3 3 4 4 4 5 5 5 5 6 6 7 7 7 8 8 8 7 8 8
6 6 6 5 5 5 5 4 4 4 4 3 3 3 3 2 3 3 3 2 3 3 3 3 3 3 3 3 3 4 4 4 5 5 6 6 6 6 7 7 7 7 8 8 8 8 7 8 8
6 6 6 6 5 5 5 4 4 4 3 3 3 3 3 3 3 3 4 3 3 3 4 4 4 3 4 4 4 4 5 5 5 6 6 7 7 8 8 8 8 8 8 9 9 9 8 8 8
6 6 6 6 6 5 5 4 3 3 3 3 3 3 3 3 3 4 4 4 4 4 4 4 4 4 4 5 5 5 5 6 6 7 7 8 8 9 9 9 9 9 9 9 9 9 9 9 9
6 7 6 6 6 6 5 5 3 3 3 3 3 3 3 3 3 3 4 4 4 4 4 4 4 4 4 5 6 6 6 7 7 7 8 8 9 9 9 9 10 10 10 10 9 10 10 10 10
7 7 6 6 6 6 6 5 4 4 4 4 4 3 4 4 4 4 4 4 4 4 4 4 4 4 5 5 6 6 7 7 8 7 8 8 9 10 10 10 11 11 11 10 10 10 10 10 10
7 7 7 6 6 5 6 6 5 5 4 4 4 4 4 4 5 5 4 4 4 4 4 4 4 5 5 5 6 6 7 7 8 8 8 8 9 10 10 11 11 11 11 11 11 11 11 11 10
8 8 7 6 6 6 6 5 5 5 4 4 5 5 5 5 5 5 5 5 5 5 5 5 5 5 5 6 6 7 7 8 8 8 8 9 9 10 10 11 11 11 11 11 11 11 11 11 11
8 8 8 7 6 6 6 5 4 5 5 5 5 5 5 5 5 5 5 5 5 6 6 6 5 6 6 7 7 7 8 8 8 8 8 9 9 9 10 10 10 11 11 11 11 11 11 12 12
8 8 8 8 7 7 7 6 6 6 6 5 6 6 7 6 6 6 6 6 6 6 7 7 7 7 7 8 8 8 8 8 8 8 9 9 10 10 10 10 10 11 11 11 11 11 12 12 12
8 8 8 8 7 7 7 6 7 6 6 6 7 7 7 7 7 7 7 7 7 7 7 8 8 9 9 9 9 9 9 9 9 9 10 10 11 11 11 11 11 11 12 12 12 12 12 12 12
7 7 7 7 7 7 7 7 7 7 7 7 7 8 8 7 7 8 8 8 8 8 9 9 9 10 10 10 10 10 9 9 10 11 10 10 11 11 11 11 12 12 13 13 13 13 12 12 12
7 7 8 8 7 7 7 7 7 6 7 7 8 7 8 7 7 8 8 8 9 9 10 10 10 11 11 11 11 10 10 10 10 10 10 11 11 11 12 12 12 13 14 14 14 14 14 14 13
7 7 8 8 8 8 7 7 7 6 7 7 7 7 8 8 8 8 9 10 10 10 10 10 10 11 10 10 11 11 10 9 10 10 11 11 11 12 12 12 13 13 13 14 15 15 15 15 15
8 8 8 8 8 8 8 7 7 7 7 7 7 7 8 7 7 8 9 9 10 10 10 10 10 10 10 10 10 10 9 9 10 11 11 12 12 13 12 13 13 14 14 14 15 15 16 15 15
7 7 7 7 8 8 7 7 8 8 8 8 8 8 8 8 8 8 9 9 10 10 10 10 10 10 10 10 10 10 10 10 11 12 12 12 13 13 13 14 14 14 15 16 16 16 16 16 16
7 7 6 6 7 8 8 8 8 8 7 8 8 8 8 8 8 9 9 10 10 11 10 10 10 10 10 10 10 10 11 11 12 13 12 13 13 14 14 15 16 16 16 17 17 17 17 17 17
9 8 7 7 7 9 9 9 8 8 8 8 9 10 9 9 9 10 10 11 10 11 11 11 10 10 11 11 11 12 12 12 13 13 13 14 14 15 16 16 17 17 17 18 18 18 18 18 18
8 8 8 8 8 8 8 9 9 9 9 9 9 10 10 10 10 10 11 11 11 12 12 12 11 11 11 11 12 13 13 14 14 15 15 16 16 17 17 18 18 18 19 19 19 19 19 18 18
8 9 9 8 9 9 9 10 10 10 9 9 9 9 10 11 11 11 11 12 12 12 12 12 11 11 11 11 12 13 14 15 16 17 17 17 18 19 19 19 19 19 20 20 20 20 20 20 19
9 9 10 10 10 10 10 11 11 11 10 9 9 9 10 11 11 12 13 13 13 13 13 13 13 12 13 13 13 14 15 16 16 17 18 18 19 20 20 20 20 20 21 21 21 21 21 21 21
11 11 11 12 12 12 12 13 12 12 11 11 11 11 11 11 12 13 14 14 14 13 14 15 15 14 14 15 15 16 16 17 17 19 19 20 20 20 20 21 21 22 22 22 21 21 21 21 21
12 12 12 13 13 13 13 14 12 12 12 13 13 13 13 13 14 14 15 15 15 15 15 15 16 16 16 16 16 16 17 18 18 19 20 20 20 20 21 22 22 22 22 22 22 22 22 22 22
13 13 13 14 14 14 14 15 14 13 13 14 14 14 14 14 14 15 15 15 16 16 17 17 17 17 17 18 18 17 18 18 19 20 21 21 21 21 22 23 22 22 22 22 22 22 22 22 22
14 15 15 15 15 14 15 16 15 15 15 14 15 15 15 15 15 15 15 16 17 17 18 18 18 18 19 19 19 19 19 20 21 21 22 22 23 23 23 23 23 22 22 22 22 23 23 22 21
14 15 16 16 16 16 16 16 16 16 16 16 16 16 16 15 15 16 17 17 17 18 19 19 19 20 20 20 20 21 21 21 22 22 23 24 24 24 24 24 23 23 23 23 23 23 23 22 22
15 15 16 17 16 17 17 17 16 16 16 17 17 17 16 16 16 17 18 18 19 19 20 20 21 21 22 22 22 22 22 23 23 23 24 25 25 26 26 25 25 24 24 23 23 23 23 23 24
16 16 17 17 18 18 18 17 17 17 18 18 18 17 18 18 18 18 19 20 20 21 21 21 22 22 22 23 23 23 24 24 25 25 25 26 26 27 26 26 25 25 25 25 24 25 25 24 24
17 17 17 17 18 19 19 18 18 18 19 19 18 18 19 20 20 20 20 21 21 22 22 22 22 23 23 23 23 24 25 26 26 26 27 27 27 27 27 27 26 27 27 27 26 26 26 26 26
Wind_Direction
198 196 199 199 197 199 201 200 193 185 192 200 198 188 193 210 206 198 205 210 208 210 229 223 218 210 212 212 226 242 253 268 268 266 269 268 264 265 271 279 284 281 279 279 284 272 251 243 244
205 205 205 202 201 206 202 196 188 193 192 190 194 200 205 207 199 198 208 222 224 229 242 252 225 219 225 235 243 250 260 270 274 272 273 270 269 269 271 279 283 281 281 282 285 280 264 257 256
210 210 213 218 210 209 202 194 191 189 186 188 192 206 212 215 207 212 223 226 243 241 244 254 246 237 239 244 250 251 260 268 275 276 275 274 274 274 277 281 283 282 284 285 286 283 269 268 265
215 217 220 221 216 210 204 196 197 192 195 195 205 221 220 222 224 229 238 238 249 251 251 252 249 249 256 256 257 258 267 269 273 275 275 275 277 278 279 281 284 283 281 282 280 276 269 272 273
218 220 223 226 227 220 216 209 208 191 203 207 214 226 234 228 226 238 245 245 251 253 254 251 253 257 265 269 271 273 274 274 276 280 279 279 281 281 281 282 283 284 283 281 277 274 271 272 274
218 223 223 226 226 223 225 227 228 218 216 219 224 234 239 242 237 243 247 248 252 255 258 260 257 262 269 273 276 277 279 277 279 285 284 284 285 284 283 283 283 285 286 282 277 276 274 272 274
225 227 223 228 230 226 230 235 233 215 220 225 231 240 241 240 238 242 249 252 247 252 259 266 274 278 280 282 285 283 283 284 282 284 286 286 289 288 287 288 287 286 286 282 279 278 277 277 278
228 233 234 231 229 229 234 239 238 238 233 236 239 239 246 240 240 244 249 248 248 253 260 270 285 286 287 290 291 288 289 290 288 285 284 286 287 289 288 288 289 288 286 282 281 281 279 278 279
233 238 240 238 236 235 237 241 241 244 243 244 248 244 250 252 248 245 246 246 250 253 259 267 276 281 285 289 290 288 289 290 290 287 286 285 285 289 290 289 288 286 286 283 283 280 277 277 279
237 238 240 241 243 241 238 239 244 247 247 242 244 247 249 249 250 250 252 252 248 253 259 264 271 277 283 287 290 291 290 290 290 290 291 290 290 291 293 292 291 288 286 283 282 280 278 278 279
235 239 241 243 244 246 246 252 251 252 250 244 247 250 246 247 250 253 255 257 257 258 260 263 271 276 283 285 286 288 289 289 288 289 290 291 292 292 291 291 290 287 287 285 283 282 281 280 278
234 238 243 242 243 245 246 249 250 252 252 248 252 254 252 252 250 250 253 258 262 265 268 267 270 276 282 283 281 281 284 286 285 285 288 290 292 292 290 289 287 286 285 284 287 288 284 281 279
229 232 233 235 242 244 243 243 249 247 248 251 251 251 250 253 254 255 256 261 265 267 269 270 269 272 275 277 278 278 281 284 284 284 286 290 293 293 291 289 288 288 288 288 288 288 285 284 281
228 225 230 231 237 237 239 244 249 246 246 250 253 256 254 254 258 263 266 265 266 267 269 271 274 274 275 275 277 278 279 281 285 286 289 292 294 295 293 289 289 288 289 290 289 288 286 283 282
229 228 233 235 241 239 243 248 247 250 251 250 251 256 260 261 262 264 268 268 268 269 271 272 275 275 276 278 281 281 282 288 290 291 292 292 294 296 295 293 292 290 289 290 289 287 284 281 280
231 231 235 240 248 248 247 245 248 252 255 254 254 256 261 265 266 263 263 266 266 268 271 273 275 274 276 280 283 282 283 288 292 292 291 291 292 294 294 296 296 292 289 290 290 289 286 282 280
229 233 232 240 251 252 253 248 247 253 257 258 260 261 261 264 265 264 262 262 264 267 270 273 277 275 277 280 281 281 283 288 292 293 292 294 295 295 294 296 298 296 293 292 291 290 288 284 280
236 231 232 251 254 254 258 252 246 250 258 259 261 263 265 265 264 264 264 262 263 267 269 273 278 276 277 279 279 282 283 287 290 292 293 295 296 296 295 297 296 294 293 293 292 291 289 285 281
239 235 236 250 250 250 254 254 251 252 256 258 263 267 266 264 261 260 262 263 264 267 270 270 275 276 278 279 279 282 283 285 289 290 291 295 295 296 296 297 296 295 294 294 292 288 287 285 281
239 242 241 244 245 248 251 253 253 251 254 259 264 265 265 265 264 262 263 265 266 266 268 271 272 275 277 277 279 281 284 285 287 289 291 295 296 295 295 296 296 295 295 293 290 287 284 284 281
241 246 249 253 251 253 256 255 254 253 257 262 266 270 271 270 266 264 266 267 266 266 266 267 268 270 274 277 278 281 284 285 288 288 288 291 295 295 294 294 295 296 296 293 289 286 283 281 280
247 251 254 255 256 257 258 258 257 257 261 266 266 270 271 269 269 268 268 268 267 267 268 268 269 269 274 276 277 281 284 286 288 288 289 292 294 294 294 294 295 296 296 293 290 287 286 283 281
253 254 256 257 258 258 261 262 259 260 263 269 270 272 275 273 272 270 268 267 267 267 269 270 272 273 275 275 277 281 283 285 288 289 292 294 294 295 295 295 295 295 294 292 290 288 286 282 280
255 256 258 261 262 260 261 262 261 261 266 269 271 272 274 275 274 272 269 266 265 266 268 270 272 275 278 280 281 283 284 285 288 291 293 294 294 295 296 296 296 294 293 292 292 289 286 284 281
254 257 260 261 261 260 261 261 262 268 269 268 269 271 272 271 271 273 271 268 266 267 267 269 272 275 279 283 286 286 286 287 289 292 293 293 292 294 296 296 295 293 293 293 292 290 287 285 281
253 256 258 262 263 262 264 264 266 268 269 267 268 269 269 269 269 272 273 272 270 270 269 270 272 275 278 282 286 287 286 288 292 293 293 292 292 293 294 295 294 293 293 293 291 289 286 283 279
255 255 259 262 265 266 265 266 265 267 268 268 269 269 269 269 269 271 273 274 273 271 271 272 274 277 278 280 284 287 289 290 292 293 293 292 293 294 295 294 292 292 293 293 291 288 284 281 279
258 259 261 262 264 267 268 267 266 266 271 272 270 269 268 269 271 273 273 274 273 272 272 273 274 276 278 279 282 285 288 290 291 292 293 292 293 293 293 292 291 290 290 291 291 287 282 280 278
257 258 260 261 262 266 269 268 268 271 273 272 269 269 267 266 267 271 273 272 271 272 273 273 274 276 277 278 281 285 287 288 290 290 292 293 292 293 292 290 289 289 289 289 289 285 283 280 279
256 257 258 259 262 265 269 271 271 273 273 271 270 270 270 269 268 270 273 270 269 271 272 273 275 277 278 278 280 284 286 287 289 290 291 291 292 292 290 288 288 289 289 288 287 284 281 280 280
Height
5868 5868 5869 5870 5872 5871 5871 5872 5872 5872 5873 5873 5873 5873 5874 5874 5876 5878 5876 5874 5875 5875 5876 5876 5876 5876 5877 5877 5877 5877 5878 5878 5878 5878 5878 5878 5877 5877 5877 5876 5876 5875 5875 5874 5872 5870 5870 5872 5873
5867 5868 5869 5870 5870 5870 5871 5871 5871 5872 5872 5872 5873 5873 5873 5874 5874 5875 5874 5874 5874 5875 5875 5875 5876 5876 5876 5877 5877 5877 5877 5877 5877 5877 5877 5877 5877 5876 5876 5875 5875 5875 5874 5873 5873 5872 5872 5872 5873
5867 5867 5869 5869 5869 5870 5871 5870 5870 5871 5871 5872 5873 5873 5873 5873 5874 5874 5874 5874 5874 5874 5875 5875 5875 5875 5876 5876 5876 5876 5877 5877 5876 5876 5876 5876 5876 5875 5875 5875 5874 5874 5873 5873 5872 5872 5872 5872 5872
5866 5868 5868 5868 5868 5869 5869 5870 5869 5870 5871 5871 5872 5872 5872 5873 5873 5873 5873 5873 5873 5873 5874 5874 5874 5874 5875 5875 5875 5875 5875 5875 5875 5875 5875 5875 5874 5874 5874 5873 5873 5873 5872 5872 5872 5871 5871 5871 5871
5865 5866 5867 5867 5868 5868 5868 5869 5869 5869 5870 5870 5871 5871 5871 5872 5872 5872 5872 5872 5872 5872 5873 5873 5873 5873 5874 5874 5874 5874 5874 5874 5874 5874 5873 5873 5872 5872 5872 5872 5871 5871 5871 5871 5870 5870 5870 5870 5869
5865 5865 5866 5866 5866 5867 5867 5868 5868 5869 5869 5869 5870 5870 5870 5871 5871 5871 5871 5871 5871 5871 5872 5872 5872 5872 5873 5873 5873 5873 5873 5873 5872 5872 5872 5871 5871 5870 5870 5870 5870 5870 5869 5869 5869 5868 5868 5868 5868
5864 5864 5864 5865 5865 5866 5866 5867 5867 5867 5868 5869 5869 5869 5869 5870 5870 5870 5870 5870 5870 5871 5871 5871 5871 5871 5871 5872 5872 5872 5872 5871 5871 5871 5870 5869 5869 5869 5868 5868 5868 5868 5867 5867 5867 5866 5866 5866 5866
5862 5863 5863 5863 5864 5865 5865 5865 5866 5866 5867 5867 5868 5868 5868 5869 5869 5869 5869 5869 5869 5870 5870 5870 5870 5870 5870 5870 5870 5870 5870 5870 5869 5869 5868 5868 5868 5867 5867 5866 5866 5866 5865 5865 5864 5864 5864 5863 5863
5860 5862 5861 5862 5863 5863 5863 5864 5864 5864 5865 5866 5866 5867 5867 5867 5868 5868 5868 5868 5868 5869 5869 5869 5869 5869 5869 5869 5869 5869 5869 5868 5868 5867 5867 5866 5866 5865 5865 5864 5864 5863 5863 5863 5862 5861 5861 5861 5861
5859 5859 5860 5861 5861 5862 5862 5863 5863 5863 5864 5864 5865 5865 5866 5866 5866 5866 5867 5867 5867 5868 5868 5868 5868 5868 5868 5868 5868 5867 5867 5866 5866 5865 5865 5865 5864 5863 5863 5862 5862 5861 5860 5860 5859 5859 5858 5858 5858
5857 5858 5858 5859 5859 5860 5860 5861 5862 5862 5862 5863 5863 5863 5864 5864 5864 5865 5865 5866 5866 5866 5866 5867 5867 5867 5866 5866 5866 5866 5865 5865 5864 5864 5863 5863 5862 5861 5861 5860 5859 5858 5858 5857 5857 5856 5856 5855 5855
5855 5856 5856 5857 5857 5858 5859 5859 5860 5860 5861 5861 5861 5862 5862 5863 5863 5863 5864 5864 5864 5865 5865 5865 5865 5865 5865 5865 5864 5864 5863 5863 5862 5862 5861 5861 5860 5859 5858 5858 5857 5856 5855 5855 5854 5854 5853 5852 5852
5854 5854 5855 5855 5855 5856 5857 5857 5858 5858 5859 5859 5859 5860 5860 5861 5861 5862 5862 5862 5862 5862 5862 5862 5863 5863 5863 5862 5862 5862 5861 5861 5860 5860 5859 5858 5857 5857 5856 5855 5854 5853 5852 5852 5851 5851 5850 5849 5849
5852 5852 5852 5853 5853 5854 5855 5855 5856 5856 5857 5857 5857 5858 5858 5859 5859 5859 5860 5860 5860 5860 5860 5860 5860 5860 5860 5860 5860 5859 5859 5858 5858 5857 5856 5856 5855 5854 5853 5852 5851 5850 5849 5849 5848 5847 5846 5846 5845
5850 5851 5851 5851 5851 5852 5853 5854 5854 5854 5854 5855 5855 5856 5856 5857 5857 5857 5857 5857 5857 5858 5858 5858 5858 5857 5857 5857 5857 5856 5856 5856 5855 5854 5853 5852 5852 5851 5850 5849 5848 5847 5846 5845 5844 5843 5843 5842 5841
5848 5849 5849 5850 5850 5850 5852 5852 5852 5852 5852 5853 5853 5854 5854 5855 5855 5855 5855 5855 5855 5855 5855 5856 5855 5855 5855 5854 5854 5854 5853 5853 5852 5852 5851 5850 5849 5848 5847 5846 5845 5844 5842 5841 5841 5839 5839 5838 5838
5846 5847 5848 5848 5848 5848 5849 5850 5850 5850 5850 5850 5851 5851 5852 5852 5853 5853 5853 5853 5853 5853 5853 5853 5853 5852 5852 5852 5852 5851 5851 5850 5849 5849 5848 5847 5845 5845 5844 5843 5841 5840 5839 5838 5837 5836 5835 5834 5833
5845 5845 5846 5846 5846 5846 5847 5848 5848 5848 5848 5848 5848 5849 5849 5850 5850 5850 5850 5850 5850 5850 5850 5850 5850 5850 5850 5849 5849 5848 5848 5847 5847 5846 5844 5843 5842 5841 5840 5839 5838 5837 5835 5834 5832 5831 5830 5829 5829
5843 5843 5844 5844 5844 5844 5844 5845 5845 5845 5845 5845 5846 5846 5846 5847 5847 5847 5847 5847 5847 5847 5847 5847 5847 5847 5847 5846 5846 5846 5845 5844 5843 5842 5841 5840 5839 5838 5836 5835 5834 5832 5831 5829 5828 5826 5825 5824 5824
5840 5841 5842 5843 5842 5842 5842 5842 5843 5843 5843 5843 5843 5843 5843 5843 5843 5844 5844 5843 5843 5844 5843 5843 5844 5844 5844 5843 5843 5843 5842 5841 5840 5839 5838 5836 5835 5833 5832 5830 5829 5827 5826 5824 5822 5821 5820 5819 5819
5838 5839 5839 5840 5839 5839 5840 5840 5840 5840 5840 5840 5840 5840 5840 5840 5840 5840 5840 5840 5840 5840 5840 5840 5840 5840 5840 5840 5839 5839 5838 5837 5836 5835 5833 5832 5831 5829 5827 5825 5824 5822 5820 5818 5816 5815 5814 5814 5813
5836 5836 5836 5836 5836 5837 5837 5837 5837 5837 5837 5837 5837 5837 5836 5836 5836 5836 5836 5837 5837 5837 5837 5836 5837 5837 5837 5836 5836 5835 5834 5833 5832 5831 5829 5827 5826 5824 5822 5820 5818 5816 5814 5812 5810 5809 5808 5808 5807
5833 5833 5833 5833 5833 5834 5833 5832 5834 5833 5833 5833 5833 5833 5833 5833 5832 5832 5832 5833 5833 5833 5833 5833 5833 5833 5833 5832 5832 5831 5830 5829 5828 5826 5824 5823 5821 5819 5817 5815 5813 5810 5808 5806 5804 5803 5802 5801 5801
5829 5830 5830 5830 5830 5830 5830 5829 5829 5829 5829 5829 5829 5829 5829 5829 5828 5828 5828 5828 5828 5828 5828 5828 5828 5828 5828 5827 5827 5826 5825 5824 5823 5821 5820 5818 5816 5814 5811 5809 5807 5804 5802 5800 5799 5797 5796 5795 5794
5825 5826 5826 5825 5825 5826 5826 5824 5825 5825 5825 5825 5825 5824 5824 5824 5824 5823 5823 5823 5823 5824 5824 5824 5824 5824 5824 5823 5822 5821 5820 5819 5818 5816 5815 5813 5811 5808 5806 5803 5801 5799 5796 5794 5793 5791 5789 5788 5788
5821 5822 5822 5822 5821 5821 5820 5819 5821 5820 5820 5820 5820 5819 5819 5819 5819 5819 5819 5819 5819 5819 5819 5819 5819 5819 5819 5818 5817 5816 5815 5814 5813 5811 5809 5807 5805 5803 5800 5797 5795 5792 5790 5788 5786 5784 5783 5782 5781
5816 5817 5818 5817 5816 5816 5815 5815 5816 5815 5815 5815 5814 5814 5813 5813 5814 5814 5813 5813 5813 5813 5813 5814 5814 5813 5813 5813 5812 5811 5809 5808 5806 5805 5803 5801 5799 5796 5794 5791 5789 5786 5784 5782 5780 5778 5776 5775 5775
5812 5812 5812 5812 5811 5810 5810 5810 5811 5810 5810 5809 5809 5809 5808 5808 5808 5808 5808 5808 5808 5808 5808 5808 5808 5808 5807 5807 5806 5805 5804 5802 5800 5798 5796 5794 5792 5789 5787 5784 5782 5780 5778 5775 5773 5771 5770 5769 5768
5807 5807 5806 5806 5806 5805 5805 5808 5806 5805 5805 5804 5804 5803 5803 5803 5803 5803 5803 5803 5803 5802 5802 5802 5802 5802 5801 5801 5800 5799 5797 5796 5794 5792 5789 5787 5785 5782 5780 5777 5775 5773 5771 5769 5767 5765 5763 5762 5761
5801 5801 5801 5802 5801 5800 5800 5804 5801 5800 5800 5799 5799 5798 5797 5797 5797 5797 5797 5796 5796 5796 5796 5796 5795 5795 5795 5794 5793 5792 5791 5789 5787 5785 5783 5780 5778 5775 5773 5770 5768 5766 5764 5762 5760 5758 5756 5755 5754